Year,Month,Day,Hour,Minute,Value (Times are PST for temperature in C)
2007,09,19,00,00,10.30
2007,09,19,00,01,10.30
2007,09,19,00,02,10.30
2007,09,19,00,03,10.30
2007,09,19,00,04,10.30
2007,09,19,00,05,10.30
2007,09,19,00,06,10.30
2007,09,19,00,07,10.30
2007,09,19,00,08,10.30
2007,09,19,00,09,10.30
2007,09,19,00,10,10.30
2007,09,19,00,11,10.30
2007,09,19,00,12,10.30
2007,09,19,00,13,10.30
2007,09,19,00,14,10.30
2007,09,19,00,15,10.30
2007,09,19,00,16,10.30
2007,09,19,00,17,10.30
2007,09,19,00,18,10.30
2007,09,19,00,19,10.30
2007,09,19,00,20,10.30
2007,09,19,00,21,10.30
2007,09,19,00,22,10.30
2007,09,19,00,23,10.30
2007,09,19,00,24,10.40
2007,09,19,00,25,10.30
2007,09,19,00,26,10.30
2007,09,19,00,27,10.30
2007,09,19,00,28,10.30
2007,09,19,00,29,10.30
2007,09,19,00,30,10.30
2007,09,19,00,31,10.30
2007,09,19,00,32,10.30
2007,09,19,00,33,10.30
2007,09,19,00,34,10.30
2007,09,19,00,35,10.30
2007,09,19,00,36,10.30
2007,09,19,00,37,10.20
2007,09,19,00,38,10.20
2007,09,19,00,39,10.20
2007,09,19,00,40,10.20
2007,09,19,00,41,10.20
2007,09,19,00,42,10.20
2007,09,19,00,43,10.20
2007,09,19,00,44,10.20
2007,09,19,00,45,10.20
2007,09,19,00,46,10.20
2007,09,19,00,47,10.20
2007,09,19,00,48,10.20
2007,09,19,00,49,10.20
2007,09,19,00,50,10.20
2007,09,19,00,51,10.20
2007,09,19,00,52,10.20
2007,09,19,00,53,10.20
2007,09,19,00,54,10.20
2007,09,19,00,55,10.20
2007,09,19,00,56,10.20
2007,09,19,00,57,10.20
2007,09,19,00,58,10.20
2007,09,19,00,59,10.20
2007,09,19,01,00,10.20
2007,09,19,01,01,10.20
2007,09,19,01,02,10.20
2007,09,19,01,03,10.10
2007,09,19,01,04,10.10
2007,09,19,01,05,10.10
2007,09,19,01,06,10.10
2007,09,19,01,07,10.10
2007,09,19,01,08,10.10
2007,09,19,01,09,10.10
2007,09,19,01,10,10.10
2007,09,19,01,11,10.10
2007,09,19,01,12,10.10
2007,09,19,01,13,10.10
2007,09,19,01,14,10.10
2007,09,19,01,15,10.10
2007,09,19,01,16,10.10
2007,09,19,01,17,10.10
2007,09,19,01,18,10.10
2007,09,19,01,19,10.10
2007,09,19,01,20,10.10
2007,09,19,01,21,10.10
2007,09,19,01,22,10.20
2007,09,19,01,23,10.20
2007,09,19,01,24,10.20
2007,09,19,01,25,10.20
2007,09,19,01,26,10.20
2007,09,19,01,27,10.20
2007,09,19,01,28,10.10
2007,09,19,01,29,10.10
2007,09,19,01,30,10.10
2007,09,19,01,31,10.10
2007,09,19,01,32,10.00
2007,09,19,01,33,10.00
2007,09,19,01,34,9.90
2007,09,19,01,35,9.90
2007,09,19,01,36,9.90
2007,09,19,01,37,9.90
2007,09,19,01,38,9.90
2007,09,19,01,39,9.90
2007,09,19,01,40,9.80
2007,09,19,01,41,9.80
2007,09,19,01,42,9.80
2007,09,19,01,43,9.80
2007,09,19,01,44,9.80
2007,09,19,01,45,9.80
2007,09,19,01,46,9.80
2007,09,19,01,47,9.80
2007,09,19,01,48,9.70
2007,09,19,01,49,9.70
2007,09,19,01,50,9.70
2007,09,19,01,51,9.70
2007,09,19,01,52,9.70
2007,09,19,01,53,9.70
2007,09,19,01,54,9.70
2007,09,19,01,55,9.60
2007,09,19,01,56,9.60
2007,09,19,01,57,9.60
2007,09,19,01,58,9.60
2007,09,19,01,59,9.60
2007,09,19,02,00,9.60
2007,09,19,02,01,9.60
2007,09,19,02,02,9.60
2007,09,19,02,03,9.60
2007,09,19,02,04,9.60
2007,09,19,02,05,9.60
2007,09,19,02,06,9.60
2007,09,19,02,07,9.60
2007,09,19,02,08,9.60
2007,09,19,02,09,9.60
2007,09,19,02,10,9.60
2007,09,19,02,11,9.60
2007,09,19,02,12,9.60
2007,09,19,02,13,9.60
2007,09,19,02,14,9.60
2007,09,19,02,15,9.60
2007,09,19,02,16,9.60
2007,09,19,02,17,9.60
2007,09,19,02,18,9.70
2007,09,19,02,19,9.70
2007,09,19,02,20,9.70
2007,09,19,02,21,9.70
2007,09,19,02,22,9.70
2007,09,19,02,23,9.70
2007,09,19,02,24,9.70
2007,09,19,02,25,9.70
2007,09,19,02,26,9.70
2007,09,19,02,27,9.70
2007,09,19,02,28,9.70
2007,09,19,02,29,9.70
2007,09,19,02,30,9.70
2007,09,19,02,31,9.70
2007,09,19,02,32,9.60
2007,09,19,02,33,9.60
2007,09,19,02,34,9.60
2007,09,19,02,35,9.60
2007,09,19,02,36,9.60
2007,09,19,02,37,9.50
2007,09,19,02,38,9.50
2007,09,19,02,39,9.50
2007,09,19,02,40,9.50
2007,09,19,02,41,9.40
2007,09,19,02,42,9.40
2007,09,19,02,43,9.40
2007,09,19,02,44,9.40
2007,09,19,02,45,9.40
2007,09,19,02,46,9.40
2007,09,19,02,47,9.40
2007,09,19,02,48,9.30
2007,09,19,02,49,9.30
2007,09,19,02,50,9.30
2007,09,19,02,51,9.30
2007,09,19,02,52,9.30
2007,09,19,02,53,9.30
2007,09,19,02,54,9.30
2007,09,19,02,55,9.30
2007,09,19,02,56,9.30
2007,09,19,02,57,9.30
2007,09,19,02,58,9.30
2007,09,19,02,59,9.30
2007,09,19,03,00,9.30
2007,09,19,03,01,9.20
2007,09,19,03,02,9.20
2007,09,19,03,03,9.20
2007,09,19,03,04,9.20
2007,09,19,03,05,9.20
2007,09,19,03,06,9.10
2007,09,19,03,07,9.10
2007,09,19,03,08,9.10
2007,09,19,03,09,9.10
2007,09,19,03,10,9.10
2007,09,19,03,11,9.10
2007,09,19,03,12,9.10
2007,09,19,03,13,9.10
2007,09,19,03,14,9.00
2007,09,19,03,15,9.00
2007,09,19,03,16,9.10
2007,09,19,03,17,9.00
2007,09,19,03,18,9.00
2007,09,19,03,19,9.00
2007,09,19,03,20,9.00
2007,09,19,03,21,9.00
2007,09,19,03,22,9.00
2007,09,19,03,23,9.00
2007,09,19,03,24,9.00
2007,09,19,03,25,9.00
2007,09,19,03,26,9.10
2007,09,19,03,27,9.10
2007,09,19,03,28,9.10
2007,09,19,03,29,9.10
2007,09,19,03,30,9.10
2007,09,19,03,31,9.10
2007,09,19,03,32,9.10
2007,09,19,03,33,9.10
2007,09,19,03,34,9.10
2007,09,19,03,35,9.00
2007,09,19,03,36,9.00
2007,09,19,03,37,9.00
2007,09,19,03,38,8.90
2007,09,19,03,39,8.90
2007,09,19,03,40,8.90
2007,09,19,03,41,8.90
2007,09,19,03,42,8.80
2007,09,19,03,43,8.80
2007,09,19,03,44,8.80
2007,09,19,03,45,8.80
2007,09,19,03,46,8.80
2007,09,19,03,47,8.80
2007,09,19,03,48,8.80
2007,09,19,03,49,8.80
2007,09,19,03,50,8.80
2007,09,19,03,51,8.80
2007,09,19,03,52,8.80
2007,09,19,03,53,8.80
2007,09,19,03,54,8.80
2007,09,19,03,55,8.70
2007,09,19,03,56,8.70
2007,09,19,03,57,8.70
2007,09,19,03,58,8.70
2007,09,19,03,59,8.70
2007,09,19,04,00,8.70
2007,09,19,04,01,8.70
2007,09,19,04,02,8.70
2007,09,19,04,03,8.60
2007,09,19,04,04,8.60
2007,09,19,04,05,8.60
2007,09,19,04,06,8.60
2007,09,19,04,07,8.60
2007,09,19,04,08,8.60
2007,09,19,04,09,8.60
2007,09,19,04,10,8.60
2007,09,19,04,11,8.60
2007,09,19,04,12,8.50
2007,09,19,04,13,8.50
2007,09,19,04,14,8.40
2007,09,19,04,15,8.40
2007,09,19,04,16,8.40
2007,09,19,04,17,8.30
2007,09,19,04,18,8.30
2007,09,19,04,19,8.30
2007,09,19,04,20,8.20
2007,09,19,04,21,8.20
2007,09,19,04,22,8.20
2007,09,19,04,23,8.10
2007,09,19,04,24,8.10
2007,09,19,04,25,8.10
2007,09,19,04,26,8.00
2007,09,19,04,27,8.00
2007,09,19,04,28,8.00
2007,09,19,04,29,8.00
2007,09,19,04,30,8.00
2007,09,19,04,31,7.90
2007,09,19,04,32,7.90
2007,09,19,04,33,7.90
2007,09,19,04,34,7.90
2007,09,19,04,35,7.90
2007,09,19,04,36,7.90
2007,09,19,04,37,7.90
2007,09,19,04,38,7.80
2007,09,19,04,39,7.80
2007,09,19,04,40,7.80
2007,09,19,04,41,7.80
2007,09,19,04,42,7.80
2007,09,19,04,43,7.70
2007,09,19,04,44,7.70
2007,09,19,04,45,7.70
2007,09,19,04,46,7.70
2007,09,19,04,47,7.70
2007,09,19,04,48,7.60
2007,09,19,04,49,7.60
2007,09,19,04,50,7.60
2007,09,19,04,51,7.60
2007,09,19,04,52,7.60
2007,09,19,04,53,7.50
2007,09,19,04,54,7.50
2007,09,19,04,55,7.50
2007,09,19,04,56,7.40
2007,09,19,04,57,7.40
2007,09,19,04,58,7.40
2007,09,19,04,59,7.40
2007,09,19,05,00,7.40
2007,09,19,05,01,7.30
2007,09,19,05,02,7.30
2007,09,19,05,03,7.30
2007,09,19,05,04,7.30
2007,09,19,05,05,7.20
2007,09,19,05,06,7.20
2007,09,19,05,07,7.20
2007,09,19,05,08,7.20
2007,09,19,05,09,7.20
2007,09,19,05,10,7.10
2007,09,19,05,11,7.10
2007,09,19,05,12,7.00
2007,09,19,05,13,7.00
2007,09,19,05,14,6.90
2007,09,19,05,15,6.90
2007,09,19,05,16,6.90
2007,09,19,05,17,6.90
2007,09,19,05,18,6.90
2007,09,19,05,19,6.80
2007,09,19,05,20,6.80
2007,09,19,05,21,6.80
2007,09,19,05,22,6.80
2007,09,19,05,23,6.80
2007,09,19,05,24,6.80
2007,09,19,05,25,6.80
2007,09,19,05,26,6.80
2007,09,19,05,27,6.80
2007,09,19,05,28,6.80
2007,09,19,05,29,6.80
2007,09,19,05,30,6.80
2007,09,19,05,31,6.80
2007,09,19,05,32,6.80
2007,09,19,05,33,6.70
2007,09,19,05,34,6.70
2007,09,19,05,35,6.70
2007,09,19,05,36,6.70
2007,09,19,05,37,6.70
2007,09,19,05,38,6.70
2007,09,19,05,39,6.70
2007,09,19,05,40,6.60
2007,09,19,05,41,6.60
2007,09,19,05,42,6.60
2007,09,19,05,43,6.60
2007,09,19,05,44,6.50
2007,09,19,05,45,6.50
2007,09,19,05,46,6.50
2007,09,19,05,47,6.50
2007,09,19,05,48,6.40
2007,09,19,05,49,6.50
2007,09,19,05,50,6.50
2007,09,19,05,51,6.40
2007,09,19,05,52,6.40
2007,09,19,05,53,6.40
2007,09,19,05,54,6.40
2007,09,19,05,55,6.40
2007,09,19,05,56,6.40
2007,09,19,05,57,6.40
2007,09,19,05,58,6.30
2007,09,19,05,59,6.30
2007,09,19,06,00,6.30
2007,09,19,06,01,6.30
2007,09,19,06,02,6.30
2007,09,19,06,03,6.30
2007,09,19,06,04,6.30
2007,09,19,06,05,6.30
2007,09,19,06,06,6.20
2007,09,19,06,07,6.20
2007,09,19,06,08,6.20
2007,09,19,06,09,6.20
2007,09,19,06,10,6.20
2007,09,19,06,11,6.20
2007,09,19,06,12,6.20
2007,09,19,06,13,6.20
2007,09,19,06,14,6.20
2007,09,19,06,15,6.20
2007,09,19,06,16,6.20
2007,09,19,06,17,6.20
2007,09,19,06,18,6.20
2007,09,19,06,19,6.20
2007,09,19,06,20,6.10
2007,09,19,06,21,6.10
2007,09,19,06,22,6.10
2007,09,19,06,23,6.10
2007,09,19,06,24,6.00
2007,09,19,06,25,6.00
2007,09,19,06,26,6.00
2007,09,19,06,27,6.00
2007,09,19,06,28,6.00
2007,09,19,06,29,6.00
2007,09,19,06,30,6.00
2007,09,19,06,31,6.00
2007,09,19,06,32,6.00
2007,09,19,06,33,6.00
2007,09,19,06,34,5.90
2007,09,19,06,35,5.90
2007,09,19,06,36,5.90
2007,09,19,06,37,5.90
2007,09,19,06,38,5.90
2007,09,19,06,39,5.90
2007,09,19,06,40,5.90
2007,09,19,06,41,6.00
2007,09,19,06,42,6.00
2007,09,19,06,43,6.00
2007,09,19,06,44,6.10
2007,09,19,06,45,6.10
2007,09,19,06,46,6.10
2007,09,19,06,47,6.10
2007,09,19,06,48,6.10
2007,09,19,06,49,6.10
2007,09,19,06,50,6.10
2007,09,19,06,51,6.10
2007,09,19,06,52,6.10
2007,09,19,06,53,6.10
2007,09,19,06,54,6.10
2007,09,19,06,55,6.10
2007,09,19,06,56,6.10
2007,09,19,06,57,6.20
2007,09,19,06,58,6.20
2007,09,19,06,59,6.20
2007,09,19,07,00,6.20
2007,09,19,07,01,6.10
2007,09,19,07,02,6.10
2007,09,19,07,03,6.10
2007,09,19,07,04,6.10
2007,09,19,07,05,6.10
2007,09,19,07,06,6.10
2007,09,19,07,07,6.20
2007,09,19,07,08,6.40
2007,09,19,07,09,6.70
2007,09,19,07,10,7.00
2007,09,19,07,11,7.20
2007,09,19,07,12,7.40
2007,09,19,07,13,7.50
2007,09,19,07,14,7.60
2007,09,19,07,15,7.60
2007,09,19,07,16,7.70
2007,09,19,07,17,7.80
2007,09,19,07,18,8.00
2007,09,19,07,19,8.10
2007,09,19,07,20,8.10
2007,09,19,07,21,8.20
2007,09,19,07,22,8.20
2007,09,19,07,23,8.20
2007,09,19,07,24,8.20
2007,09,19,07,25,8.30
2007,09,19,07,26,8.40
2007,09,19,07,27,8.50
2007,09,19,07,28,8.60
2007,09,19,07,29,8.70
2007,09,19,07,30,8.70
2007,09,19,07,31,8.80
2007,09,19,07,32,8.80
2007,09,19,07,33,8.90
2007,09,19,07,34,9.00
2007,09,19,07,35,9.10
2007,09,19,07,36,9.20
2007,09,19,07,37,9.30
2007,09,19,07,38,9.40
2007,09,19,07,39,9.60
2007,09,19,07,40,9.70
2007,09,19,07,41,9.80
2007,09,19,07,42,9.80
2007,09,19,07,43,9.70
2007,09,19,07,44,9.60
2007,09,19,07,45,9.40
2007,09,19,07,46,9.30
2007,09,19,07,47,9.20
2007,09,19,07,48,9.10
2007,09,19,07,49,9.00
2007,09,19,07,50,8.90
2007,09,19,07,51,8.80
2007,09,19,07,52,8.70
2007,09,19,07,53,8.60
2007,09,19,07,54,8.60
2007,09,19,07,55,8.60
2007,09,19,07,56,8.60
2007,09,19,07,57,8.60
2007,09,19,07,58,8.60
2007,09,19,07,59,8.60
2007,09,19,08,00,8.70
2007,09,19,08,01,8.70
2007,09,19,08,02,8.70
2007,09,19,08,03,8.80
2007,09,19,08,04,8.80
2007,09,19,08,05,8.80
2007,09,19,08,06,8.90
2007,09,19,08,07,8.90
2007,09,19,08,08,9.00
2007,09,19,08,09,9.10
2007,09,19,08,10,9.10
2007,09,19,08,11,9.20
2007,09,19,08,12,9.20
2007,09,19,08,13,9.30
2007,09,19,08,14,9.30
2007,09,19,08,15,9.40
2007,09,19,08,16,9.50
2007,09,19,08,17,9.60
2007,09,19,08,18,9.70
2007,09,19,08,19,9.80
2007,09,19,08,20,9.80
2007,09,19,08,21,9.90
2007,09,19,08,22,9.90
2007,09,19,08,23,10.00
2007,09,19,08,24,10.10
2007,09,19,08,25,10.10
2007,09,19,08,26,10.10
2007,09,19,08,27,10.20
2007,09,19,08,28,10.20
2007,09,19,08,29,10.20
2007,09,19,08,30,10.30
2007,09,19,08,31,10.30
2007,09,19,08,32,10.40
2007,09,19,08,33,10.50
2007,09,19,08,34,10.50
2007,09,19,08,35,10.60
2007,09,19,08,36,10.60
2007,09,19,08,37,10.70
2007,09,19,08,38,10.70
2007,09,19,08,39,10.80
2007,09,19,08,40,10.80
2007,09,19,08,41,10.90
2007,09,19,08,42,10.90
2007,09,19,08,43,11.00
2007,09,19,08,44,11.10
2007,09,19,08,45,11.10
2007,09,19,08,46,11.20
2007,09,19,08,47,11.20
2007,09,19,08,48,11.20
2007,09,19,08,49,11.30
2007,09,19,08,50,11.30
2007,09,19,08,51,11.40
2007,09,19,08,52,11.50
2007,09,19,08,53,11.50
2007,09,19,08,54,11.60
2007,09,19,08,55,11.70
2007,09,19,08,56,11.70
2007,09,19,08,57,11.80
2007,09,19,08,58,11.90
2007,09,19,08,59,11.90
2007,09,19,09,00,12.00
2007,09,19,09,01,12.00
2007,09,19,09,02,12.10
2007,09,19,09,03,12.20
2007,09,19,09,04,12.30
2007,09,19,09,05,12.30
2007,09,19,09,06,12.40
2007,09,19,09,07,12.50
2007,09,19,09,08,12.70
2007,09,19,09,09,12.80
2007,09,19,09,10,13.00
2007,09,19,09,11,13.10
2007,09,19,09,12,13.30
2007,09,19,09,13,13.40
2007,09,19,09,14,13.50
2007,09,19,09,15,13.60
2007,09,19,09,16,13.80
2007,09,19,09,17,13.90
2007,09,19,09,18,13.90
2007,09,19,09,19,14.00
2007,09,19,09,20,14.10
2007,09,19,09,21,14.20
2007,09,19,09,22,14.20
2007,09,19,09,23,14.20
2007,09,19,09,24,14.30
2007,09,19,09,25,14.30
2007,09,19,09,26,14.30
2007,09,19,09,27,14.30
2007,09,19,09,28,14.40
2007,09,19,09,29,14.50
2007,09,19,09,30,14.60
2007,09,19,09,31,14.60
2007,09,19,09,32,14.60
2007,09,19,09,33,14.60
2007,09,19,09,34,14.60
2007,09,19,09,35,14.60
2007,09,19,09,36,14.60
2007,09,19,09,37,14.60
2007,09,19,09,38,14.60
2007,09,19,09,39,14.70
2007,09,19,09,40,14.80
2007,09,19,09,41,14.80
2007,09,19,09,42,15.00
2007,09,19,09,43,15.00
2007,09,19,09,44,15.00
2007,09,19,09,45,14.90
2007,09,19,09,46,14.80
2007,09,19,09,47,14.80
2007,09,19,09,48,14.80
2007,09,19,09,49,14.80
2007,09,19,09,50,14.90
2007,09,19,09,51,14.80
2007,09,19,09,52,14.70
2007,09,19,09,53,14.70
2007,09,19,09,54,14.70
2007,09,19,09,55,14.60
2007,09,19,09,56,14.60
2007,09,19,09,57,14.60
2007,09,19,09,58,14.50
2007,09,19,09,59,14.40
2007,09,19,10,00,14.40
2007,09,19,10,01,14.40
2007,09,19,10,02,14.40
2007,09,19,10,03,14.40
2007,09,19,10,04,14.40
2007,09,19,10,05,14.40
2007,09,19,10,06,14.40
2007,09,19,10,07,14.50
2007,09,19,10,08,14.60
2007,09,19,10,09,14.60
2007,09,19,10,10,14.60
2007,09,19,10,11,14.70
2007,09,19,10,12,14.70
2007,09,19,10,13,14.80
2007,09,19,10,14,14.80
2007,09,19,10,15,14.80
2007,09,19,10,16,14.90
2007,09,19,10,17,15.00
2007,09,19,10,18,15.00
2007,09,19,10,19,15.00
2007,09,19,10,20,15.00
2007,09,19,10,21,15.00
2007,09,19,10,22,15.00
2007,09,19,10,23,15.00
2007,09,19,10,24,15.00
2007,09,19,10,25,15.00
2007,09,19,10,26,15.00
2007,09,19,10,27,15.00
2007,09,19,10,28,15.00
2007,09,19,10,29,15.00
2007,09,19,10,30,15.00
2007,09,19,10,31,15.00
2007,09,19,10,32,15.00
2007,09,19,10,33,15.00
2007,09,19,10,34,15.00
2007,09,19,10,35,15.00
2007,09,19,10,36,15.00
2007,09,19,10,37,15.10
2007,09,19,10,38,15.30
2007,09,19,10,39,15.30
2007,09,19,10,40,15.30
2007,09,19,10,41,15.20
2007,09,19,10,42,15.10
2007,09,19,10,43,15.00
2007,09,19,10,44,15.00
2007,09,19,10,45,15.00
2007,09,19,10,46,15.00
2007,09,19,10,47,15.00
2007,09,19,10,48,15.00
2007,09,19,10,49,15.10
2007,09,19,10,50,15.20
2007,09,19,10,51,15.20
2007,09,19,10,52,15.30
2007,09,19,10,53,15.30
2007,09,19,10,54,15.30
2007,09,19,10,55,15.30
2007,09,19,10,56,15.30
2007,09,19,10,57,15.30
2007,09,19,10,58,15.30
2007,09,19,10,59,15.30
2007,09,19,11,00,15.30
2007,09,19,11,01,15.50
2007,09,19,11,02,15.60
2007,09,19,11,03,15.70
2007,09,19,11,04,15.70
2007,09,19,11,05,15.80
2007,09,19,11,06,15.80
2007,09,19,11,07,15.80
2007,09,19,11,08,15.80
2007,09,19,11,09,15.80
2007,09,19,11,10,15.80
2007,09,19,11,11,15.80
2007,09,19,11,12,15.80
2007,09,19,11,13,15.90
2007,09,19,11,14,16.00
2007,09,19,11,15,16.10
2007,09,19,11,16,16.20
2007,09,19,11,17,16.20
2007,09,19,11,18,16.20
2007,09,19,11,19,16.30
2007,09,19,11,20,16.30
2007,09,19,11,21,16.40
2007,09,19,11,22,16.50
2007,09,19,11,23,16.50
2007,09,19,11,24,16.40
2007,09,19,11,25,16.40
2007,09,19,11,26,16.50
2007,09,19,11,27,16.60
2007,09,19,11,28,16.50
2007,09,19,11,29,16.50
2007,09,19,11,30,16.50
2007,09,19,11,31,16.40
2007,09,19,11,32,16.40
2007,09,19,11,33,16.30
2007,09,19,11,34,16.30
2007,09,19,11,35,16.30
2007,09,19,11,36,16.40
2007,09,19,11,37,16.50
2007,09,19,11,38,16.50
2007,09,19,11,39,16.60
2007,09,19,11,40,16.70
2007,09,19,11,41,16.70
2007,09,19,11,42,16.70
2007,09,19,11,43,16.70
2007,09,19,11,44,16.70
2007,09,19,11,45,16.70
2007,09,19,11,46,16.70
2007,09,19,11,47,16.60
2007,09,19,11,48,16.60
2007,09,19,11,49,16.50
2007,09,19,11,50,16.50
2007,09,19,11,51,16.50
2007,09,19,11,52,16.50
2007,09,19,11,53,16.60
2007,09,19,11,54,16.60
2007,09,19,11,55,16.60
2007,09,19,11,56,16.60
2007,09,19,11,57,16.70
2007,09,19,11,58,16.80
2007,09,19,11,59,16.90
2007,09,19,12,00,16.90
2007,09,19,12,01,17.10
2007,09,19,12,02,17.10
2007,09,19,12,03,17.20
2007,09,19,12,04,17.20
2007,09,19,12,05,17.30
2007,09,19,12,06,17.40
2007,09,19,12,07,17.40
2007,09,19,12,08,17.50
2007,09,19,12,09,17.60
2007,09,19,12,10,17.60
2007,09,19,12,11,17.60
2007,09,19,12,12,17.60
2007,09,19,12,13,17.60
2007,09,19,12,14,17.60
2007,09,19,12,15,17.50
2007,09,19,12,16,17.50
2007,09,19,12,17,17.60
2007,09,19,12,18,17.70
2007,09,19,12,19,17.70
2007,09,19,12,20,17.70
2007,09,19,12,21,17.70
2007,09,19,12,22,17.70
2007,09,19,12,23,17.70
2007,09,19,12,24,17.60
2007,09,19,12,25,17.60
2007,09,19,12,26,17.60
2007,09,19,12,27,17.50
2007,09,19,12,28,17.50
2007,09,19,12,29,17.50
2007,09,19,12,30,17.60
2007,09,19,12,31,17.60
2007,09,19,12,32,17.70
2007,09,19,12,33,17.70
2007,09,19,12,34,17.70
2007,09,19,12,35,17.70
2007,09,19,12,36,17.70
2007,09,19,12,37,17.70
2007,09,19,12,38,17.80
2007,09,19,12,39,17.80
2007,09,19,12,40,17.80
2007,09,19,12,41,17.70
2007,09,19,12,42,17.70
2007,09,19,12,43,17.60
2007,09,19,12,44,17.50
2007,09,19,12,45,17.50
2007,09,19,12,46,17.60
2007,09,19,12,47,17.70
2007,09,19,12,48,17.80
2007,09,19,12,49,17.80
2007,09,19,12,50,17.90
2007,09,19,12,51,17.90
2007,09,19,12,52,17.80
2007,09,19,12,53,17.90
2007,09,19,12,54,17.90
2007,09,19,12,55,17.90
2007,09,19,12,56,17.80
2007,09,19,12,57,17.90
2007,09,19,12,58,18.00
2007,09,19,12,59,18.00
2007,09,19,13,00,18.20
2007,09,19,13,01,18.30
2007,09,19,13,02,18.30
2007,09,19,13,03,18.30
2007,09,19,13,04,18.30
2007,09,19,13,05,18.40
2007,09,19,13,06,18.50
2007,09,19,13,07,18.50
2007,09,19,13,08,18.60
2007,09,19,13,09,18.60
2007,09,19,13,10,18.50
2007,09,19,13,11,18.40
2007,09,19,13,12,18.40
2007,09,19,13,13,18.30
2007,09,19,13,14,18.10
2007,09,19,13,15,17.90
2007,09,19,13,16,17.70
2007,09,19,13,17,17.60
2007,09,19,13,18,17.50
2007,09,19,13,19,17.40
2007,09,19,13,20,17.50
2007,09,19,13,21,17.60
2007,09,19,13,22,17.60
2007,09,19,13,23,17.70
2007,09,19,13,24,17.70
2007,09,19,13,25,17.70
2007,09,19,13,26,17.80
2007,09,19,13,27,17.80
2007,09,19,13,28,17.80
2007,09,19,13,29,17.80
2007,09,19,13,30,17.80
2007,09,19,13,31,17.70
2007,09,19,13,32,17.70
2007,09,19,13,33,17.80
2007,09,19,13,34,17.80
2007,09,19,13,35,17.80
2007,09,19,13,36,17.80
2007,09,19,13,37,17.70
2007,09,19,13,38,17.60
2007,09,19,13,39,17.70
2007,09,19,13,40,17.80
2007,09,19,13,41,18.00
2007,09,19,13,42,18.20
2007,09,19,13,43,18.40
2007,09,19,13,44,18.50
2007,09,19,13,45,18.60
2007,09,19,13,46,18.70
2007,09,19,13,47,18.70
2007,09,19,13,48,18.70
2007,09,19,13,49,18.80
2007,09,19,13,50,18.80
2007,09,19,13,51,18.90
2007,09,19,13,52,19.00
2007,09,19,13,53,19.00
2007,09,19,13,54,19.00
2007,09,19,13,55,19.00
2007,09,19,13,56,18.90
2007,09,19,13,57,18.80
2007,09,19,13,58,18.70
2007,09,19,13,59,18.70
2007,09,19,14,00,18.70
2007,09,19,14,01,18.80
2007,09,19,14,02,18.80
2007,09,19,14,03,18.70
2007,09,19,14,04,18.70
2007,09,19,14,05,18.70
2007,09,19,14,06,18.70
2007,09,19,14,07,18.80
2007,09,19,14,08,18.90
2007,09,19,14,09,19.10
2007,09,19,14,10,19.20
2007,09,19,14,11,19.20
2007,09,19,14,12,19.20
2007,09,19,14,13,19.20
2007,09,19,14,14,19.20
2007,09,19,14,15,19.20
2007,09,19,14,16,19.10
2007,09,19,14,17,19.00
2007,09,19,14,18,19.00
2007,09,19,14,19,19.00
2007,09,19,14,20,19.00
2007,09,19,14,21,19.00
2007,09,19,14,22,18.90
2007,09,19,14,23,18.70
2007,09,19,14,24,18.50
2007,09,19,14,25,18.50
2007,09,19,14,26,18.50
2007,09,19,14,27,18.60
2007,09,19,14,28,18.70
2007,09,19,14,29,18.60
2007,09,19,14,30,18.50
2007,09,19,14,31,18.50
2007,09,19,14,32,18.60
2007,09,19,14,33,18.60
2007,09,19,14,34,18.80
2007,09,19,14,35,19.00
2007,09,19,14,36,19.10
2007,09,19,14,37,19.10
2007,09,19,14,38,19.10
2007,09,19,14,39,19.00
2007,09,19,14,40,19.10
2007,09,19,14,41,19.10
2007,09,19,14,42,19.10
2007,09,19,14,43,19.00
2007,09,19,14,44,18.90
2007,09,19,14,45,18.90
2007,09,19,14,46,18.90
2007,09,19,14,47,18.80
2007,09,19,14,48,18.90
2007,09,19,14,49,18.90
2007,09,19,14,50,18.90
2007,09,19,14,51,18.90
2007,09,19,14,52,18.90
2007,09,19,14,53,19.00
2007,09,19,14,54,19.00
2007,09,19,14,55,19.10
2007,09,19,14,56,19.10
2007,09,19,14,57,19.10
2007,09,19,14,58,19.20
2007,09,19,14,59,19.20
2007,09,19,15,00,19.20
2007,09,19,15,01,19.20
2007,09,19,15,02,19.20
2007,09,19,15,03,19.30
2007,09,19,15,04,19.30
2007,09,19,15,05,19.30
2007,09,19,15,06,19.20
2007,09,19,15,07,19.30
2007,09,19,15,08,19.20
2007,09,19,15,09,19.20
2007,09,19,15,10,19.10
2007,09,19,15,11,19.10
2007,09,19,15,12,19.20
2007,09,19,15,13,19.20
2007,09,19,15,14,19.30
2007,09,19,15,15,19.30
2007,09,19,15,16,19.30
2007,09,19,15,17,19.20
2007,09,19,15,18,19.20
2007,09,19,15,19,19.30
2007,09,19,15,20,19.20
2007,09,19,15,21,19.10
2007,09,19,15,22,19.00
2007,09,19,15,23,18.90
2007,09,19,15,24,18.80
2007,09,19,15,25,18.80
2007,09,19,15,26,18.70
2007,09,19,15,27,18.80
2007,09,19,15,28,18.90
2007,09,19,15,29,18.90
2007,09,19,15,30,19.00
2007,09,19,15,31,19.00
2007,09,19,15,32,19.20
2007,09,19,15,33,19.30
2007,09,19,15,34,19.40
2007,09,19,15,35,19.60
2007,09,19,15,36,19.80
2007,09,19,15,37,19.90
2007,09,19,15,38,20.00
2007,09,19,15,39,20.10
2007,09,19,15,40,20.10
2007,09,19,15,41,20.10
2007,09,19,15,42,20.10
2007,09,19,15,43,20.10
2007,09,19,15,44,20.20
2007,09,19,15,45,20.20
2007,09,19,15,46,20.10
2007,09,19,15,47,20.10
2007,09,19,15,48,20.20
2007,09,19,15,49,20.40
2007,09,19,15,50,20.40
2007,09,19,15,51,20.40
2007,09,19,15,52,20.30
2007,09,19,15,53,20.30
2007,09,19,15,54,20.20
2007,09,19,15,55,20.20
2007,09,19,15,56,20.20
2007,09,19,15,57,20.20
2007,09,19,15,58,20.10
2007,09,19,15,59,20.00
2007,09,19,16,00,19.90
2007,09,19,16,01,19.80
2007,09,19,16,02,19.70
2007,09,19,16,03,19.60
2007,09,19,16,04,19.50
2007,09,19,16,05,19.50
2007,09,19,16,06,19.50
2007,09,19,16,07,19.60
2007,09,19,16,08,19.60
2007,09,19,16,09,19.50
2007,09,19,16,10,19.40
2007,09,19,16,11,19.40
2007,09,19,16,12,19.40
2007,09,19,16,13,19.40
2007,09,19,16,14,19.20
2007,09,19,16,15,19.20
2007,09,19,16,16,19.10
2007,09,19,16,17,19.10
2007,09,19,16,18,19.10
2007,09,19,16,19,19.10
2007,09,19,16,20,19.20
2007,09,19,16,21,19.20
2007,09,19,16,22,19.30
2007,09,19,16,23,19.40
2007,09,19,16,24,19.50
2007,09,19,16,25,19.60
2007,09,19,16,26,19.70
2007,09,19,16,27,19.80
2007,09,19,16,28,19.90
2007,09,19,16,29,20.00
2007,09,19,16,30,20.00
2007,09,19,16,31,19.90
2007,09,19,16,32,19.90
2007,09,19,16,33,19.80
2007,09,19,16,34,19.80
2007,09,19,16,35,19.80
2007,09,19,16,36,19.90
2007,09,19,16,37,19.90
2007,09,19,16,38,19.90
2007,09,19,16,39,19.80
2007,09,19,16,40,19.90
2007,09,19,16,41,19.80
2007,09,19,16,42,19.70
2007,09,19,16,43,19.80
2007,09,19,16,44,19.80
2007,09,19,16,45,19.80
2007,09,19,16,46,19.90
2007,09,19,16,47,19.90
2007,09,19,16,48,19.90
2007,09,19,16,49,19.90
2007,09,19,16,50,19.80
2007,09,19,16,51,19.70
2007,09,19,16,52,19.60
2007,09,19,16,53,19.40
2007,09,19,16,54,19.30
2007,09,19,16,55,19.30
2007,09,19,16,56,19.30
2007,09,19,16,57,19.30
2007,09,19,16,58,19.40
2007,09,19,16,59,19.50
2007,09,19,17,00,19.50
2007,09,19,17,01,19.60
2007,09,19,17,02,19.50
2007,09,19,17,03,19.40
2007,09,19,17,04,19.40
2007,09,19,17,05,19.30
2007,09,19,17,06,19.20
2007,09,19,17,07,19.10
2007,09,19,17,08,19.00
2007,09,19,17,09,19.00
2007,09,19,17,10,19.10
2007,09,19,17,11,19.10
2007,09,19,17,12,19.10
2007,09,19,17,13,19.10
2007,09,19,17,14,19.10
2007,09,19,17,15,19.10
2007,09,19,17,16,19.10
2007,09,19,17,17,19.00
2007,09,19,17,18,19.00
2007,09,19,17,19,18.90
2007,09,19,17,20,18.90
2007,09,19,17,21,18.80
2007,09,19,17,22,18.80
2007,09,19,17,23,18.80
2007,09,19,17,24,18.80
2007,09,19,17,25,18.80
2007,09,19,17,26,18.80
2007,09,19,17,27,18.80
2007,09,19,17,28,18.80
2007,09,19,17,29,18.70
2007,09,19,17,30,18.70
2007,09,19,17,31,18.70
2007,09,19,17,32,18.70
2007,09,19,17,33,18.70
2007,09,19,17,34,18.70
2007,09,19,17,35,18.60
2007,09,19,17,36,18.60
2007,09,19,17,37,18.70